This demonstration page uses our WeatherBlox Daily Observations layout. Learn more.

Left ArrowRight Arrow

39.95233, -75.16379

Hourly Observations for January 30, 2022

Temp ( °F °C ) Dew Point ( °F °C ) Humidity (%) Winds ( mph kmh ) Pressure ( in mb ) Visibility ( mi km ) Precip ( " mm )
12:54 am 00:54 Mostly Clear 15 -9.4 -4 -20 42 42 NW 13 20 29.96 1015 10 16 0.00 0.00
1:54 am 01:54 Clear 15 -9.4 -4 -20 42 42 NW 13 20 29.98 1015 10 16 0.00 0.00
2:54 am 02:54 Clear 15 -9.4 -3 -19.4 44 44 WNW 10 17 29.98 1015 10 16 0.00 0.00
3:54 am 03:54 Clear 15 -9.4 -3 -19.4 44 44 W 10 17 30.00 1016 10 16 0.00 0.00
4:54 am 04:54 Mostly Clear N/A N/A N/A WSW 9 15 30.01 1016 10 16 0.00 0.00
4:58 am 04:58 Mostly Clear 12 -11.1 -3 -19.4 51 51 WSW 9 15 30.03 1017 10 16 0.00 0.00
5:54 am 05:54 Partly Cloudy 12 -11.1 -3 -19.4 51 51 W 13 20 30.04 1017 10 16 0.00 0.00
6:54 am 06:54 Partly Cloudy 13 -10.6 -2 -18.9 51 51 W 12 19 30.06 1018 10 16 0.00 0.00
7:54 am 07:54 Partly Cloudy 13 -10.6 -2 -18.9 51 51 W 12 19 30.09 1019 10 16 0.00 0.00
8:54 am 08:54 Partly Cloudy 13 -10.6 -2 -18.9 51 51 W 12 19 30.10 1019 10 16 0.00 0.00
9:54 am 09:54 Partly Cloudy 19 -7.2 -1 -18.3 41 41 W 14 22 30.11 1020 10 16 0.00 0.00
10:54 am 10:54 Partly Cloudy 21 -6.1 2 -16.7 43 43 W 14 22 30.10 1019 10 16 0.00 0.00
11:54 am 11:54 Partly Cloudy 23 -5 2 -16.7 40 40 W 9 15 30.08 1019 10 16 0.00 0.00
12:54 pm 12:54 Mostly Sunny 25 -3.9 3 -16.1 39 39 WSW 13 20 30.06 1018 10 16 0.00 0.00
1:54 pm 13:54 Mostly Sunny 25 -3.9 3 -16.1 39 39 WNW 7 11 30.04 1017 10 16 0.00 0.00
2:54 pm 14:54 Mostly Sunny 26 -3.3 7 -13.9 44 44 WSW 10 17 30.04 1017 10 16 0.00 0.00
3:54 pm 15:54 Mostly Sunny 27 -2.8 8 -13.3 45 45 W 9 15 30.04 1017 10 16 0.00 0.00
4:54 pm 16:54 Mostly Sunny 27 -2.8 7 -13.9 43 43 WNW 7 11 30.06 1018 10 16 0.00 0.00
5:54 pm 17:54 Partly Cloudy 27 -2.8 6 -14.4 41 41 WNW 5 7 30.09 1019 10 16 0.00 0.00
6:54 pm 18:54 Partly Cloudy 26 -3.3 8 -13.3 46 46 SW 3 6 30.12 1020 10 16 0.00 0.00
7:54 pm 19:54 Mostly Cloudy 26 -3.3 9 -12.8 48 48 Calm 30.15 1021 10 16 0.00 0.00
8:54 pm 20:54 Mostly Cloudy 26 -3.3 9 -12.8 48 48 Calm 30.16 1022 10 16 0.00 0.00
9:54 pm 21:54 Cloudy 24 -4.4 9 -12.8 52 52 Calm 30.19 1022 10 16 0.00 0.00
10:54 pm 22:54 Cloudy 24 -4.4 12 -11.1 60 60 Calm 30.20 1023 10 16 0.00 0.00
11:54 pm 23:54 Cloudy 24 -4.4 12 -11.1 60 60 Calm 30.20 1023 10 16 0.00 0.00

Powered by AerisWeather